Regional Weather Roundup
Issued by NWS

Home | Current Version | Previous Version | Graphics & Text | Print | Product List | Glossary Off
Versions: 1 2 3 4 5 6 7 8 9 10 11 12 13 14 15 16 17 18 19 20 21 22 23 24 25 26 27 28 29 30 31 32 33 34 35 36 37 38 39 40 41 42 43 44 45 46 47 48 49 50

000
ASUS43 KDTX 191701
RWRMI
MICHIGAN HOURLY REGIONAL WEATHER ROUNDUP
NATIONAL WEATHER SERVICE DETROIT/PONTIAC MI
100 PM EDT THU OCT 19 2017

NOTE: "FAIR" INDICATES FEW OR NO CLOUDS BELOW 12,000 FEET WITH NO
SIGNIFICANT WEATHER AND/OR OBSTRUCTION TO VISIBILITY.

MIZ047>049-052>055-059>063-066>070-074>076-081>083-191800-
SOUTHEAST LOWER MICHIGAN

CITY           SKY/WX    TMP DP  RH WIND       PRES   REMARKS
ADRIAN         SUNNY     66  45  46 W9        30.15S
ALMA           SUNNY     65  26  22 W16G23    30.12R
ANN ARBOR      SUNNY     66  47  50 W12       30.13R
BAD AXE        MOSUNNY   62  35  36 W13G20    30.07S
CARO           MOSUNNY   65  35  33 W15       30.08S
DETROIT CITY   SUNNY     66  47  50 W13       30.11F
DETROIT        MOSUNNY   69  49  48 W10       30.13S
FLINT          CLOUDY    65  39  38 W14       30.11S
GROSSE ILE     SUNNY     67  48  49 W8        30.11S
HILLSDALE      SUNNY     64  45  48 W9        30.15S
HOWELL         SUNNY     65  45  47 W12       30.13S

CITY           SKY/WX    TMP DP  RH WIND       PRES   REMARKS
JACKSON        SUNNY     65  42  43 W10       30.14S
LAMBERTVILLE   SUNNY     68  49  50 W9        30.14F
LANSING        SUNNY     65  37  35 W13       30.14S
LAPEER         FAIR      64  41  43 W10G16    30.10S
MASON          SUNNY     66  43  44 W10       30.14S
MONROE         SUNNY     69  46  43 W12       30.13S
MT. CLEMENS    PTSUNNY   67  50  54 W12G20    30.09S
PONTIAC        PTSUNNY   64  44  48 W13       30.10S
PORT HOPE        N/A     63  40  42 W10G21    30.03R
PORT HURON     MOSUNNY   68  45  42 W8        30.09S
TRI CITIES     MOSUNNY   64  33  31 W14       30.10R
MIDLAND        FAIR      65  32  28 W12G17    30.08S
TROY           SUNNY     67  46  47 W12       30.13S
SAGINAW HB     CLOUDY    64  34  32 W12       30.09R
$$
MIZ043>046-050>051-056>058-064>065-071>073-077>080-191800-
SOUTHWEST LOWER MICHIGAN

CITY           SKY/WX    TMP DP  RH WIND       PRES   REMARKS
BATTLE CREEK   SUNNY     64  43  46 W12       30.16R
BENTON HARBOR  SUNNY     63  37  38 VRB5      30.19R
BIG RAPIDS     SUNNY     62  19  19 W13G18    30.11S
COLDWATER      SUNNY     65  42  42 W8        30.16S
FREMONT        FAIR      64  30  27 NW7       30.14R
HOLLAND        SUNNY     64  38  38 NW6       30.18R
GRAND RAPIDS   PTSUNNY   65  29  25 W12       30.15R
IONIA          FAIR      65  24  20 W12       30.13S
KALAMAZOO      SUNNY     65  36  34 NW13      30.18R
LUDINGTON      MOSUNNY   59  38  45 W8        30.13S
MARSHALL       SUNNY     65  43  44 W9        30.15S
MOUNT PLEASANT SUNNY     67  25  20 W10G17    30.10R
MUSKEGON       PTSUNNY   63  40  42 W10       30.17R
SOUTH HAVEN    SUNNY     64  38  37 W8        30.18S
$$
MIZ016>042-191800-
NORTHERN LOWER MICHIGAN

CITY           SKY/WX    TMP DP  RH WIND       PRES   REMARKS
ALPENA         CLOUDY    62  29  28 W14G24    30.00S
BEAVER ISLAND  CLOUDY    58  36  44 W16G24    30.02R
BELLAIRE       MOSUNNY   60  27  28 W14G20    30.06R
CADILLAC       SUNNY     64  22  20 W10G18    30.08S
CHARLEVOIX     MOSUNNY   58  38  46 W18G28    30.06R
FRANKFORT      SUNNY     61  40  45 W12G17    30.10R
GAYLORD        MOSUNNY   56  25  30 W16G26    30.04R
GRAYLING       MOSUNNY   60  22  22 W13G20    30.06S
HARBOR SPRINGS MOSUNNY   59  35  41 W14G23    30.02R
HOUGHTON LAKE  CLOUDY    60  28  29 W15       30.07S
MANISTEE       SUNNY     60  39  45 W15       30.12R
OSCODA         CLOUDY    64  25  22 W18G28    30.02R
PELLSTON       MOSUNNY   60  33  36 W16       30.01R
ROGERS CITY    MOSUNNY   61  32  33 W15G26    29.99R
TRAVERSE CITY  PTSUNNY   63  21  20 W22       30.06R
$$
MIZ007>008-015-191800-
EASTERN UPPER MICHIGAN

CITY           SKY/WX    TMP DP  RH WIND       PRES   REMARKS
KINROSS        CLOUDY    57  26  30 W16G26    29.95R
MACKINAC ISLAN MOSUNNY   58  31  36 W23G36    29.98R
NEWBERRY       CLOUDY    56  27  33 W15G23    29.97R
S. S. MARIE    MOSUNNY   58  31  35 W18G26    29.94R
MUNISING         N/A     60  30  32 W8G17     29.98R
$$
MIZ004>006-011>014-085-191800-
CENTRAL UPPER MICHIGAN

CITY           SKY/WX    TMP DP  RH WIND       PRES   REMARKS
MANISTIQUE     CLOUDY    58   7  12 W7        30.00S
ESCANABA       MOSUNNY   61  22  22 W16G23    30.03R
MENOMINEE      PTSUNNY   60  27  28 W12       30.08R
SAWYER-GWINN   SUNNY     57  21  24 W17G24    30.00S
$$
MIZ001>003-009>011-084-191800-
WESTERN UPPER MICHIGAN

CITY           SKY/WX    TMP DP  RH WIND       PRES   REMARKS
IRON MOUNTAIN  MOSUNNY   61  19  19 W16G23    30.03S
HOUGHTON       MOSUNNY   56  32  40 W24G37    29.96R
COPPER HARBOR    N/A     57  30  35 NW12G25   29.93R
IRONWOOD       CLOUDY    59  25  27 W14G20    30.05R
$$

ABBREVIATIONS USED IN REMARKS
   TC - TEMPERATURE IN CELSIUS
  WCI - WIND CHILL INDEX
   HX - HEAT INDEX
  VSB - VISIBILITY




USA.gov is the U.S. government's official web portal to all federal, state and local government web resources and services.